Date String (YYYY-MM-DD hh:mm:ss) UTC,Instrument flags,Ambient pressure (hPa),Sample flow (lpm),Bypass flow (lpm),Sample temperature (°C),Ambient temperature (°C),ASC tube jacket temperature (°C),LED temperature (°C),Box temperature (°C),Sample RH (%),Span deviation,Mass concentration (μg/m³),Mass concentration (μg/m³),Mass concentration (μg/m³)
DateTimeUTC,F1_M11,P_M11,Q1_M11,Q2_M11,T1_M11,T2_M11,T3_M11,T4_M11,T5_M11,U1_M11,ZSPAN_M11,X0_M11,X2_M11,X1_M11
2022-12-26 23:00:00,,0826.8,5.01,0.00,25.0,23.7,00.0,33.8,26.8,16.7,0000.0,0007.77,0006.14,0005.94
2022-12-26 23:01:00,,0826.8,5.02,0.00,25.0,23.7,00.0,33.8,26.8,16.3,0000.0,0007.80,0006.16,0005.93
2022-12-26 23:02:00,,0827.2,5.02,0.00,25.0,23.7,00.0,33.8,26.8,16.2,0000.0,0007.81,0006.16,0005.93
2022-12-26 23:03:00,,0827.2,4.99,0.00,25.0,23.7,00.0,33.8,26.8,16.3,0000.0,0007.84,0006.15,0005.91
2022-12-26 23:04:00,,0827.0,4.97,0.00,25.0,23.7,00.0,33.8,26.8,16.3,0000.0,0007.91,0006.14,0005.87
2022-12-26 23:05:00,,0826.9,4.98,0.00,25.0,23.7,00.0,33.8,26.8,16.2,0000.0,0007.84,0006.10,0005.84
2022-12-26 23:06:00,,0826.9,4.99,0.00,25.0,23.8,00.0,33.8,26.8,16.2,0000.0,0007.83,0006.07,0005.80
2022-12-26 23:07:00,,0826.9,4.99,0.00,25.0,23.8,00.0,33.8,26.8,16.3,0000.0,0007.87,0006.04,0005.78
2022-12-26 23:08:00,,0826.9,5.02,0.00,25.0,23.8,00.0,33.8,26.8,16.2,0000.0,0008.17,0006.04,0005.77
2022-12-26 23:09:00,,0826.9,5.00,0.00,25.0,23.8,00.0,33.8,26.9,16.2,0000.0,0008.14,0006.03,0005.74
2022-12-26 23:10:00,,0826.9,4.99,0.00,25.0,23.8,00.0,33.8,26.9,16.2,0000.0,0008.14,0006.00,0005.70
2022-12-26 23:11:00,,0827.0,5.02,0.00,25.0,23.8,00.0,33.8,26.9,16.0,0000.0,0008.10,0005.95,0005.66
2022-12-26 23:12:00,,0826.9,4.99,0.00,25.1,23.8,00.0,33.8,26.8,15.8,0000.0,0008.02,0005.88,0005.62
2022-12-26 23:13:00,,0826.9,4.98,0.00,25.1,23.8,00.0,33.9,26.8,15.8,0000.0,0008.03,0005.86,0005.59
2022-12-26 23:14:00,,0827.1,4.96,0.00,25.1,23.8,00.0,33.9,26.9,15.8,0000.0,0008.05,0005.84,0005.58
2022-12-26 23:15:00,,0827.2,4.99,0.00,25.1,23.8,00.0,33.9,26.9,15.7,0000.0,0008.73,0005.81,0005.57
2022-12-26 23:16:00,,0827.0,4.99,0.00,25.1,23.8,00.0,33.9,26.9,15.8,0000.0,0008.85,0005.80,0005.56
2022-12-26 23:17:00,,0827.1,5.01,0.00,25.1,23.8,00.0,33.9,26.9,15.7,0000.0,0008.85,0005.81,0005.57
2022-12-26 23:18:00,,0826.8,5.02,0.00,25.1,23.8,00.0,33.9,26.9,15.8,0000.0,0008.79,0005.81,0005.57
2022-12-26 23:19:00,,0826.8,4.98,0.00,25.1,23.8,00.0,33.9,26.9,15.7,0000.0,0008.56,0005.80,0005.56
2022-12-26 23:20:00,,0826.9,4.98,0.00,25.1,23.8,00.0,33.9,26.9,15.7,0000.0,0008.84,0005.81,0005.58
2022-12-26 23:21:00,,0826.8,4.98,0.00,25.1,23.8,00.0,33.9,26.9,15.6,0000.0,0008.81,0005.83,0005.60
2022-12-26 23:22:00,,0826.8,4.99,0.00,25.1,23.8,00.0,33.9,26.9,15.6,0000.0,0008.85,0005.87,0005.64
2022-12-26 23:23:00,,0826.7,5.03,0.00,25.1,23.8,00.0,33.9,26.9,15.6,0000.0,0008.87,0005.90,0005.68
2022-12-26 23:24:00,,0826.8,5.02,0.00,25.1,23.8,00.0,33.9,26.9,15.6,0000.0,0009.02,0005.96,0005.73
2022-12-26 23:25:00,,0826.7,4.98,0.00,25.1,23.8,00.0,33.9,26.9,15.6,0000.0,0009.11,0006.02,0005.78
2022-12-26 23:26:00,,0826.7,4.99,0.00,25.1,23.8,00.0,33.9,26.9,15.5,0000.0,0008.49,0006.07,0005.84
2022-12-26 23:27:00,,0826.7,4.98,0.00,25.1,23.7,00.0,33.9,26.9,15.4,0000.0,0008.50,0006.13,0005.88
2022-12-26 23:28:00,,0826.7,5.00,0.00,25.1,23.7,00.0,33.9,26.9,15.4,0000.0,0009.10,0006.16,0005.91
2022-12-26 23:29:00,,0826.7,5.02,0.00,25.1,23.7,00.0,33.9,26.9,15.4,0000.0,0010.30,0006.22,0005.95
2022-12-26 23:30:00,,0826.7,5.02,0.00,25.0,23.7,00.0,33.9,26.9,15.4,0000.0,0010.52,0006.28,0006.00
2022-12-26 23:31:00,,0826.7,4.98,0.00,25.0,23.7,00.0,33.9,26.9,15.4,0000.0,0010.76,0006.31,0006.02
2022-12-26 23:32:00,,0826.7,4.99,0.00,25.0,23.7,00.0,33.9,26.9,15.4,0000.0,0010.88,0006.32,0006.03
2022-12-26 23:33:00,,0826.7,5.00,0.00,25.0,23.7,00.0,33.9,26.9,15.4,0000.0,0010.95,0006.33,0006.04
2022-12-26 23:34:00,,0826.7,5.02,0.00,25.0,23.7,00.0,33.9,26.9,15.4,0000.0,0011.09,0006.37,0006.08
2022-12-26 23:35:00,,0826.7,5.01,0.00,25.0,23.7,00.0,33.9,26.8,15.4,0000.0,0011.41,0006.41,0006.10
2022-12-26 23:36:00,,0826.7,4.98,0.00,25.0,23.7,00.0,33.9,26.8,15.5,0000.0,0011.75,0006.44,0006.12
2022-12-26 23:37:00,,0826.6,4.97,0.00,25.0,23.7,00.0,33.9,26.9,15.4,0000.0,0011.74,0006.47,0006.15
2022-12-26 23:38:00,,0826.6,4.99,0.00,25.0,23.7,00.0,33.9,26.8,15.4,0000.0,0011.65,0006.47,0006.17
2022-12-26 23:39:00,,0826.6,5.02,0.00,25.0,23.7,00.0,33.9,26.8,15.4,0000.0,0011.14,0006.52,0006.21
2022-12-26 23:40:00,,0826.5,5.02,0.00,25.0,23.7,00.0,33.9,26.9,15.4,0000.0,0010.41,0006.54,0006.23
2022-12-26 23:41:00,,0826.5,4.99,0.00,25.0,23.7,00.0,33.9,26.8,15.4,0000.0,0010.50,0006.54,0006.22
2022-12-26 23:42:00,,0826.5,4.99,0.00,25.0,23.7,00.0,33.9,26.8,15.4,0000.0,0010.03,0006.53,0006.21
2022-12-26 23:43:00,,0826.5,4.98,0.00,25.0,23.7,00.0,33.9,26.8,15.3,0000.0,0009.94,0006.53,0006.21
2022-12-26 23:44:00,,0826.5,5.03,0.00,25.0,23.7,00.0,33.9,26.8,15.3,0000.0,0009.94,0006.55,0006.20
2022-12-26 23:45:00,,0826.6,5.02,0.00,25.0,23.7,00.0,33.9,26.8,15.3,0000.0,0009.91,0006.54,0006.17
2022-12-26 23:46:00,,0826.5,4.99,0.00,25.0,23.7,00.0,33.9,26.8,15.3,0000.0,0009.55,0006.50,0006.13
2022-12-26 23:47:00,,0826.5,4.97,0.00,25.0,23.7,00.0,33.9,26.8,15.2,0000.0,0009.49,0006.46,0006.10
2022-12-26 23:48:00,,0826.5,4.98,0.00,25.0,23.7,00.0,33.9,26.9,15.2,0000.0,0009.80,0006.43,0006.07
2022-12-26 23:49:00,,0826.5,4.99,0.00,25.0,23.7,00.0,33.9,26.8,15.2,0000.0,0009.82,0006.41,0006.03
2022-12-26 23:50:00,,0826.5,5.01,0.00,25.0,23.7,00.0,33.9,26.8,15.2,0000.0,0009.81,0006.39,0006.01
2022-12-26 23:51:00,,0826.5,4.99,0.00,25.0,23.7,00.0,33.9,26.8,15.2,0000.0,0009.51,0006.38,0005.99
2022-12-26 23:52:00,,0826.5,5.00,0.00,25.0,23.7,00.0,33.9,26.8,15.2,0000.0,0009.22,0006.38,0006.00
2022-12-26 23:53:00,,0826.5,5.00,0.00,25.0,23.7,00.0,33.9,26.8,15.3,0000.0,0009.22,0006.39,0006.02
2022-12-26 23:54:00,,0826.5,4.99,0.00,25.0,23.7,00.0,33.9,26.8,15.3,0000.0,0009.30,0006.43,0006.05
2022-12-26 23:55:00,,0826.5,4.98,0.00,25.0,23.7,00.0,33.9,26.8,15.5,0000.0,0009.56,0006.49,0006.12
2022-12-26 23:56:00,,0826.5,4.99,0.00,25.0,23.6,00.0,33.9,26.8,15.7,0000.0,0009.52,0006.53,0006.20
2022-12-26 23:57:00,,0826.4,4.99,0.00,25.0,23.5,00.0,33.9,26.8,15.7,0000.0,0009.48,0006.61,0006.28
2022-12-26 23:58:00,,0826.5,5.00,0.00,25.0,23.5,00.0,33.8,26.8,15.6,0000.0,0009.37,0006.68,0006.35
2022-12-26 23:59:00,,0826.5,5.02,0.00,24.9,23.4,00.0,33.8,26.7,15.5,0000.0,0009.09,0006.76,0006.41
